This is the latest recevied weather packets stored in our database for station/object WY7EM. If no packets are shown the sender has not sent any weather packets the latest 10 day(s).
| Time | Temp. | Humidity | Pressure | Rain* | Wind** | Luminosity | Snow |
|---|---|---|---|---|---|---|---|
| 1777559967 | 14.44° C | 26% | 1015.6 hPa | 0 mm | - | 194 W/m² | - |
| 1777559667 | 14.44° C | 27% | 1015.5 hPa | 0 mm | - | 89 W/m² | - |
| 1777559365 | 13.89° C | 26% | 1015.6 hPa | 0 mm | - | 53 W/m² | - |
| 1777559061 | 13.89° C | 26% | 1015.6 hPa | 0 mm | - | 103 W/m² | - |
| 1777558756 | 13.89° C | 27% | 1015.5 hPa | 0 mm | - | 54 W/m² | - |
| 1777558452 | 13.89° C | 26% | 1015.4 hPa | 0 mm | - | 53 W/m² | - |
| 1777558149 | 13.89° C | 27% | 1015.6 hPa | 0 mm | - | 55 W/m² | - |
| 1777557845 | 13.89° C | 27% | 1015.4 hPa | 0 mm | - | 49 W/m² | - |
| 1777557542 | 13.33° C | 27% | 1015.5 hPa | 0 mm | - | 43 W/m² | - |
| 1777557238 | 13.33° C | 28% | 1015.4 hPa | 0 mm | - | 41 W/m² | - |
| 1777556935 | 13.33° C | 27% | 1015.4 hPa | 0 mm | - | 39 W/m² | - |
| 1777556630 | 12.78° C | 28% | 1015.2 hPa | 0 mm | - | 40 W/m² | - |
| 1777556330 | 12.78° C | 28% | 1015.3 hPa | 0 mm | - | 42 W/m² | - |
| 1777556027 | 12.22° C | 29% | 1015.1 hPa | 0 mm | - | 44 W/m² | - |
| 1777555722 | 12.22° C | 29% | 1015.2 hPa | 0 mm | - | 40 W/m² | - |
| 1777555418 | 12.22° C | 30% | 1015.2 hPa | 0 mm | - | 40 W/m² | - |
| 1777555115 | 11.67° C | 30% | 1015.2 hPa | 0 mm | - | 41 W/m² | - |
| 1777554812 | 12.22° C | 31% | 1015.2 hPa | 0 mm | - | 37 W/m² | - |
| 1777554509 | 11.67° C | 30% | 1015.2 hPa | 0 mm | - | 33 W/m² | - |
| 1777554206 | 11.67° C | 31% | 1015.2 hPa | 0 mm | - | 29 W/m² | - |
| 1777553903 | 11.67° C | 31% | 1014.9 hPa | 0 mm | - | 24 W/m² | - |
| 1777553599 | 11.11° C | 31% | 1015.1 hPa | 0 mm | - | 17 W/m² | - |
| 1777553296 | 11.11° C | 31% | 1014.9 hPa | 0 mm | - | 12 W/m² | - |
| 1777552992 | 11.67° C | 30% | 1014.9 hPa | 0 mm | - | 9 W/m² | - |
| 1777552691 | 12.22° C | 28% | 1015.1 hPa | 0 mm | - | 6 W/m² | - |
* Rain latest hour (hover to see other rain measurements)
** Current wind speed in m/s (hover to see current wind gust speed)